[[{"header":{"parameterUnit":"m.s-1","parameterCategory":1,"la1":30.2992,"la2":30.254,"lo1":-89.0895,"lo2":-89.0443,"dy":0.0025,"dx":0.0025,"nx":19,"ny":19,"refTime":"2026-04-02T03:00:00:Z","depth":0,"parameterNumber":2,"parameterNumberName":"U-component_of_WINDS"},"data":[0,0,0,-4.7014,-4.7017,-4.7185,-4.7186,-4.7406,-4.7408,0,0,0,0,0,0,0,0,0,0,0,-4.6967,-4.6968,-4.7013,-4.7018,-4.7185,-4.7186,-4.7406,-4.7408,0,0,0,0,0,0,0,0,0,0,0,-4.6966,-4.6968,-4.697,-4.7018,-4.7185,-4.7186,-4.7406,-4.7277,0,0,0,0,0,0,0,0,0,0,-4.7113,-4.7072,-4.6967,-4.697,-4.7019,-4.7185,-4.7186,-4.7271,-4.7285,-4.7333,0,-4.7375,0,-4.7396,-4.7424,-4.7424,0,0,0,-4.7015,-4.706,-4.7103,-4.697,-4.7021,-4.7185,-4.7109,-4.7279,-4.7295,-4.7352,-4.7378,-4.7386,-4.7399,-4.7425,-4.7426,-4.7709,-4.771,0,0,-4.7006,-4.6998,-4.7092,-4.7114,-4.7088,-4.7104,-4.7114,-4.7288,-4.7317,-4.7379,-4.7392,-4.7403,-4.7426,-4.7428,-4.7707,-4.7709,0,0,0,-4.6981,-4.6992,-4.703,-4.7105,-4.7135,-4.7109,-4.7121,-4.7309,-4.7322,-4.7394,-4.7405,-4.7428,-4.7431,-4.7706,-4.7708,-4.7769,0,0,0,-4.6975,-4.6977,-4.7026,-4.7023,-4.7132,-4.7224,-4.7138,-4.731,-4.733,-4.7404,-4.7428,-4.7433,-4.7704,-4.7707,-4.7763,-4.7797,0,0,0,-4.6955,-4.6975,-4.7,-4.7022,-4.7094,-4.7221,-4.7245,-4.7315,-4.7338,-4.7424,-4.7433,-4.7703,-4.7706,-4.7759,-4.779,-4.7868,0,0,0,-4.693,-4.7051,-4.7001,-4.7141,-4.7093,-4.7259,-4.7243,-4.7367,-4.7449,-4.7429,-4.7704,-4.7708,-4.7758,-4.7785,-4.7863,-4.7929,-4.7957,0,0,-4.7078,-4.7069,-4.7152,-4.7112,-4.7284,-4.7234,-4.7416,-4.7498,-4.7514,-4.7643,-4.765,-4.7765,-4.7789,-4.7867,-4.8122,-4.8144,0,0,0,-4.7196,-4.7256,-4.7304,-4.7382,-4.7449,-4.7509,-4.7566,-4.7597,-4.7707,-4.7579,-4.7817,-4.7831,-4.7877,-4.7909,-4.7927,-4.7966,-4.7723,-4.7723,-4.7722,-4.7391,-4.7406,-4.7545,-4.7582,-4.7659,-4.7717,-4.7781,-4.7833,-4.7825,-4.7882,-4.7918,-4.8071,-4.8109,-4.8123,-4.8163,-4.7958,-4.7958,-4.7959,-4.7959,-4.7606,-4.7692,-4.7683,-4.7813,-4.783,-4.7941,-4.8004,-4.7996,-4.8101,-4.8045,-4.8086,-4.8018,-4.8146,-4.8182,-4.7964,-4.7963,-4.7962,-4.7962,-4.7961,-4.7732,-4.7775,-4.7813,-4.793,-4.8018,-4.8053,-4.8155,-4.8168,-4.818,-4.8221,-4.826,-4.8259,-4.8257,-4.824,-4.8241,-4.8241,-4.8242,-4.8242,-4.8242,-4.7844,-4.7886,-4.797,-4.8055,-4.8108,-4.818,-4.8244,-4.8297,-4.8358,-4.8359,-4.8359,-4.8345,-4.8158,-4.8107,-4.825,-4.8249,-4.8248,-4.8247,-4.8247,-4.8049,-4.8006,-4.8136,-4.8189,-4.8291,-4.8379,-4.8396,-4.8503,-4.8549,-4.86,-4.858,-4.844,-4.843,-4.8416,-4.8374,-4.8577,-4.8577,-4.8577,-4.8577,-4.8152,-4.815,-4.8286,-4.8371,-4.8457,-4.8486,-4.8634,-4.8687,-4.8735,-4.8765,-4.8739,-4.8687,-4.8671,-4.867,-4.865,-4.8611,-4.8871,-4.8871,-4.8871,-4.8277,-4.8285,-4.8406,-4.8453,-4.8536,-4.8606,-4.8745,-4.8844,-4.889,-4.8883,-4.8788,-4.8775,-4.8692,-4.8664,-4.8648,-4.8617,-4.8546,0,0]},{"header":{"parameterUnit":"m.s-1","parameterCategory":1,"la1":30.2992,"la2":30.254,"lo1":-89.0895,"lo2":-89.0443,"dy":0.0025,"dx":0.0025,"nx":19,"ny":19,"refTime":"2026-04-02T03:00:00:Z","depth":0,"parameterNumber":3,"parameterNumberName":"V-component_of_WINDS"},"data":[0,0,0,2.3699,2.37,2.3762,2.3763,2.3818,2.3818,0,0,0,0,0,0,0,0,0,0,0,2.3668,2.3668,2.3699,2.3701,2.3762,2.3763,2.3818,2.3818,0,0,0,0,0,0,0,0,0,0,0,2.3668,2.3668,2.3668,2.3701,2.3762,2.3763,2.3817,2.3779,0,0,0,0,0,0,0,0,0,0,2.3723,2.3681,2.3668,2.3668,2.3701,2.3762,2.3763,2.3778,2.3781,2.378,0,2.3776,0,2.3798,2.382,2.382,0,0,0,2.371,2.3678,2.3707,2.3668,2.3701,2.3762,2.3737,2.378,2.3784,2.3785,2.3777,2.378,2.3799,2.382,2.3821,2.3786,2.3786,0,0,2.3706,2.3671,2.3704,2.3709,2.37,2.3735,2.3739,2.3783,2.3772,2.3778,2.3782,2.38,2.3821,2.3821,2.3787,2.3786,0,0,0,2.369,2.3668,2.3697,2.3706,2.3719,2.3736,2.3741,2.377,2.3782,2.3782,2.38,2.3821,2.3821,2.3788,2.3787,2.3725,0,0,0,2.3689,2.3659,2.3695,2.3674,2.3718,2.3745,2.3726,2.3779,2.3785,2.38,2.3821,2.3822,2.3788,2.3787,2.3728,2.37,0,0,0,2.3668,2.3657,2.3662,2.3672,2.3698,2.3746,2.3761,2.3781,2.3796,2.382,2.3822,2.3789,2.3787,2.3731,2.3705,2.3682,0,0,0,2.3636,2.3603,2.366,2.3631,2.3697,2.3707,2.3761,2.377,2.3784,2.3821,2.3788,2.3787,2.3732,2.3708,2.3685,2.3656,2.3641,0,0,2.3575,2.3595,2.3581,2.3633,2.3625,2.3701,2.3684,2.3728,2.3761,2.3776,2.3775,2.3727,2.3706,2.3683,2.357,2.3557,0,0,0,2.355,2.3539,2.3545,2.3558,2.3593,2.3621,2.3672,2.3689,2.3704,2.3762,2.3713,2.3702,2.369,2.3678,2.3667,2.366,2.378,2.378,2.378,2.3412,2.3459,2.344,2.3495,2.3507,2.3562,2.3576,2.3608,2.3649,2.3637,2.3641,2.3567,2.3552,2.3544,2.3536,2.363,2.363,2.363,2.363,2.3328,2.3321,2.3381,2.3383,2.3433,2.3435,2.3487,2.3517,2.3526,2.3567,2.3559,2.36,2.3529,2.3524,2.3625,2.3626,2.3627,2.3627,2.3627,2.3243,2.3248,2.3272,2.3298,2.3312,2.3368,2.3375,2.3419,2.3461,2.3453,2.3463,2.3464,2.3471,2.3455,2.3454,2.3454,2.3454,2.3454,2.3454,2.3145,2.3174,2.3176,2.3213,2.3229,2.3255,2.3312,2.3328,2.3357,2.3388,2.3389,2.3431,2.3514,2.3534,2.345,2.3451,2.3451,2.3451,2.3452,2.3042,2.3074,2.3075,2.3091,2.314,2.3152,2.321,2.3239,2.3259,2.3261,2.3307,2.3361,2.3383,2.3392,2.3409,2.3297,2.3297,2.3297,2.3297,2.297,2.2988,2.3001,2.3024,2.3052,2.3105,2.3105,2.315,2.32,2.3215,2.3238,2.3264,2.3271,2.3289,2.33,2.3316,2.3184,2.3184,2.3184,2.291,2.2932,2.2924,2.2977,2.3019,2.3054,2.3056,2.3079,2.3142,2.318,2.3228,2.3233,2.3276,2.3287,2.3324,2.334,2.3371,0,0]}]]